ACA455 CYWG-CYXE

Flight info

Callsign ACA455
Flight time 1h 8m
Altitude 34000
Route ALKOG DCT DEPMI DCT MUSKK DCT AMUNA DUNEM7
Aircraft A320/M-SDE3FGHIRWY/LB1

Departure

Time 2026-05-05 03:10
Airport Winnipeg / James Armstrong Richardson International Airport (CYWG)

Arrival

Time 2026-05-05 04:18
Airport Saskatoon John G. Diefenbaker International Airport (CYXE)
Time Latitude Longitude Altitude Speed Heading
2026-05-05 02:41 49.90677 -97.22550 784 ft 0 kts 165°
2026-05-05 02:55 49.90745 -97.22573 783 ft 0 kts 173°
2026-05-05 02:57 49.90759 -97.22572 782 ft 2 kts 228°
2026-05-05 02:57 49.90763 -97.22567 782 ft 0 kts 248°
2026-05-05 03:00 49.90752 -97.22625 782 ft 17 kts 258°
2026-05-05 03:01 49.90727 -97.22814 782 ft 19 kts 251°
2026-05-05 03:01 49.90629 -97.22922 783 ft 17 kts 184°
2026-05-05 03:01 49.90526 -97.22883 784 ft 14 kts 164°
2026-05-05 03:01 49.90439 -97.22901 784 ft 12 kts 199°
2026-05-05 03:02 49.90367 -97.22941 784 ft 10 kts 199°
2026-05-05 03:02 49.90343 -97.22953 785 ft 0 kts 199°
2026-05-05 03:02 49.90326 -97.22963 785 ft 11 kts 199°
2026-05-05 03:02 49.90304 -97.22975 785 ft 0 kts 200°
2026-05-05 03:03 49.90302 -97.22976 785 ft 3 kts 199°
2026-05-05 03:03 49.90210 -97.23023 785 ft 10 kts 202°
2026-05-05 03:04 49.90205 -97.23026 785 ft 3 kts 203°
2026-05-05 03:04 49.90173 -97.23101 785 ft 12 kts 255°
2026-05-05 03:04 49.90155 -97.23181 786 ft 8 kts 232°
2026-05-05 03:04 49.90086 -97.23152 786 ft 12 kts 138°
2026-05-05 03:05 49.90007 -97.23043 783 ft 27 kts 137°
2026-05-05 03:05 49.89883 -97.22864 781 ft 13 kts 130°
2026-05-05 03:05 49.89865 -97.22831 780 ft 10 kts 130°
2026-05-05 03:05 49.89784 -97.22681 781 ft 19 kts 129°
2026-05-05 03:06 49.89709 -97.22547 782 ft 11 kts 143°
2026-05-05 03:06 49.89638 -97.22606 780 ft 18 kts 227°
2026-05-05 03:06 49.89560 -97.22744 779 ft 16 kts 229°
2026-05-05 03:06 49.89487 -97.22882 775 ft 17 kts 243°
2026-05-05 03:07 49.89490 -97.23047 776 ft 16 kts 278°
2026-05-05 03:07 49.89505 -97.23222 776 ft 17 kts 278°
2026-05-05 03:07 49.89521 -97.23406 778 ft 17 kts 276°
2026-05-05 03:07 49.89533 -97.23582 782 ft 16 kts 276°
2026-05-05 03:08 49.89552 -97.23739 785 ft 14 kts 281°
2026-05-05 03:08 49.89561 -97.23895 789 ft 19 kts 274°
2026-05-05 03:08 49.89568 -97.24007 790 ft 0 kts 277°
2026-05-05 03:08 49.89571 -97.24044 790 ft 18 kts 277°
2026-05-05 03:09 49.89666 -97.24152 791 ft 22 kts
2026-05-05 03:09 49.89976 -97.24082 782 ft 77 kts
2026-05-05 03:09 49.90696 -97.23914 787 ft 129 kts
2026-05-05 03:09 49.91723 -97.23678 876 ft 161 kts
2026-05-05 03:10 49.92807 -97.23355 1603 ft 160 kts
2026-05-05 03:10 49.93910 -97.22940 2247 ft 167 kts 10°
2026-05-05 03:10 49.95062 -97.22601 2827 ft 174 kts
2026-05-05 03:10 49.96340 -97.22357 3078 ft 197 kts
2026-05-05 03:11 49.97673 -97.22311 3406 ft 217 kts 346°
2026-05-05 03:11 49.99006 -97.23535 3870 ft 235 kts 310°
2026-05-05 03:11 49.99643 -97.25902 4682 ft 246 kts 281°
2026-05-05 03:11 49.99858 -97.28556 5601 ft 248 kts 279°
2026-05-05 03:12 50.00044 -97.31240 6492 ft 250 kts 280°
2026-05-05 03:12 50.00225 -97.33926 7385 ft 250 kts 280°
2026-05-05 03:12 50.00410 -97.36624 8220 ft 253 kts 280°
2026-05-05 03:12 50.00600 -97.39366 9030 ft 257 kts 280°
2026-05-05 03:13 50.00794 -97.42139 9836 ft 260 kts 280°
2026-05-05 03:13 50.00999 -97.44977 10398 ft 272 kts 280°
2026-05-05 03:13 50.01223 -97.48018 10598 ft 295 kts 280°
2026-05-05 03:13 50.01460 -97.51268 11024 ft 308 kts 279°
2026-05-05 03:14 50.01697 -97.54624 11663 ft 315 kts 279°
2026-05-05 03:14 50.01931 -97.58024 12312 ft 320 kts 279°
2026-05-05 03:14 50.02172 -97.61514 12976 ft 326 kts 279°
2026-05-05 03:14 50.02415 -97.65044 13616 ft 332 kts 279°
2026-05-05 03:15 50.02660 -97.68592 14199 ft 337 kts 279°
2026-05-05 03:15 50.02935 -97.72283 14798 ft 340 kts 283°
2026-05-05 03:15 50.03516 -97.75789 15370 ft 341 kts 291°
2026-05-05 03:15 50.04244 -97.79328 15948 ft 345 kts 291°
2026-05-05 03:16 50.04976 -97.82900 16543 ft 349 kts 291°
2026-05-05 03:16 50.05715 -97.86522 17141 ft 352 kts 291°
2026-05-05 03:16 50.06458 -97.90178 17736 ft 356 kts 291°
2026-05-05 03:16 50.07206 -97.93870 18288 ft 360 kts 291°
2026-05-05 03:17 50.07961 -97.97602 18790 ft 363 kts 291°
2026-05-05 03:17 50.08720 -98.01375 19318 ft 366 kts 291°
2026-05-05 03:17 50.09481 -98.05178 19826 ft 370 kts 290°
2026-05-05 03:17 50.10249 -98.09019 20342 ft 373 kts 290°
2026-05-05 03:18 50.11024 -98.12886 20859 ft 376 kts 290°
2026-05-05 03:18 50.11804 -98.16783 21381 ft 378 kts 290°
2026-05-05 03:18 50.12591 -98.20711 21879 ft 382 kts 290°
2026-05-05 03:18 50.13384 -98.24675 22381 ft 385 kts 290°
2026-05-05 03:19 50.14976 -98.32675 23466 ft 387 kts 290°
2026-05-05 03:19 50.15772 -98.36699 23892 ft 390 kts 290°
2026-05-05 03:19 50.16570 -98.40748 24304 ft 391 kts 290°
2026-05-05 03:20 50.17368 -98.44817 24705 ft 393 kts 290°
2026-05-05 03:20 50.18168 -98.48903 25111 ft 395 kts 290°
2026-05-05 03:20 50.18972 -98.53005 25495 ft 396 kts 290°
2026-05-05 03:20 50.19782 -98.57132 25872 ft 398 kts 290°
2026-05-05 03:21 50.20592 -98.61265 26240 ft 400 kts 290°
2026-05-05 03:21 50.21404 -98.65434 26613 ft 401 kts 290°
2026-05-05 03:21 50.22214 -98.69602 26978 ft 403 kts 290°
2026-05-05 03:21 50.23030 -98.73807 27333 ft 405 kts 290°
2026-05-05 03:22 50.23846 -98.78015 27686 ft 406 kts 290°
2026-05-05 03:22 50.24667 -98.82253 28038 ft 408 kts 290°
2026-05-05 03:22 50.25486 -98.86499 28391 ft 410 kts 289°
2026-05-05 03:22 50.26294 -98.90708 28699 ft 411 kts 289°
2026-05-05 03:23 50.27119 -98.95001 29014 ft 413 kts 289°
2026-05-05 03:23 50.27945 -98.99307 29328 ft 414 kts 289°
2026-05-05 03:23 50.28776 -99.03637 29635 ft 416 kts 289°
2026-05-05 03:23 50.29606 -99.07975 29939 ft 418 kts 289°
2026-05-05 03:24 50.30436 -99.12329 30127 ft 421 kts 289°
2026-05-05 03:24 50.31272 -99.16736 30332 ft 423 kts 289°
2026-05-05 03:24 50.32108 -99.21164 30524 ft 425 kts 289°
2026-05-05 03:24 50.32948 -99.25616 30708 ft 427 kts 289°
2026-05-05 03:25 50.33792 -99.30074 30939 ft 428 kts 289°
2026-05-05 03:25 50.34636 -99.34535 31215 ft 427 kts 289°
2026-05-05 03:25 50.35475 -99.38990 31487 ft 427 kts 289°
2026-05-05 03:25 50.36318 -99.43462 31747 ft 428 kts 289°
2026-05-05 03:26 50.37159 -99.47940 32002 ft 428 kts 289°
2026-05-05 03:26 50.37993 -99.52420 32255 ft 429 kts 289°
2026-05-05 03:26 50.38820 -99.56899 32509 ft 429 kts 289°
2026-05-05 03:26 50.39649 -99.61398 32771 ft 430 kts 289°
2026-05-05 03:27 50.40200 -99.64383 32921 ft 430 kts 289°
2026-05-05 03:27 50.41032 -99.68877 33180 ft 430 kts 289°
2026-05-05 03:27 50.41866 -99.73397 33435 ft 431 kts 289°
2026-05-05 03:27 50.42695 -99.77905 33694 ft 430 kts 289°
2026-05-05 03:28 50.43535 -99.82405 33901 ft 429 kts 290°
2026-05-05 03:28 50.44461 -99.86811 33931 ft 422 kts 292°
2026-05-05 03:28 50.46481 -99.95381 33932 ft 417 kts 293°
2026-05-05 03:29 50.48522 -100.03911 33933 ft 417 kts 292°
2026-05-05 03:29 50.50484 -100.12500 33933 ft 418 kts 292°
2026-05-05 03:30 50.52400 -100.21114 33936 ft 418 kts 292°
2026-05-05 03:30 50.54315 -100.29727 33917 ft 417 kts 292°
2026-05-05 03:31 50.56228 -100.38310 33925 ft 416 kts 292°
2026-05-05 03:31 50.58138 -100.46907 33929 ft 416 kts 292°
2026-05-05 03:32 50.60020 -100.55444 33938 ft 416 kts 292°
2026-05-05 03:32 50.61906 -100.64048 33938 ft 416 kts 291°
2026-05-05 03:33 50.63792 -100.72642 33936 ft 416 kts 292°
2026-05-05 03:33 50.65678 -100.81265 33922 ft 415 kts 292°
2026-05-05 03:34 50.67553 -100.89863 33940 ft 415 kts 291°
2026-05-05 03:34 50.69417 -100.98467 33945 ft 414 kts 291°
2026-05-05 03:35 50.71267 -101.07062 33944 ft 414 kts 291°
2026-05-05 03:35 50.73116 -101.15669 33937 ft 414 kts 291°
2026-05-05 03:36 50.74955 -101.24269 33935 ft 414 kts 291°
2026-05-05 03:36 50.76791 -101.32900 33910 ft 414 kts 291°
2026-05-05 03:37 50.78616 -101.41513 33926 ft 414 kts 291°
2026-05-05 03:37 50.80436 -101.50148 33925 ft 414 kts 291°
2026-05-05 03:38 50.82254 -101.58794 33928 ft 415 kts 291°
2026-05-05 03:38 50.84066 -101.67456 33932 ft 415 kts 291°
2026-05-05 03:39 50.85875 -101.76141 33944 ft 415 kts 291°
2026-05-05 03:39 50.87677 -101.84824 33926 ft 415 kts 291°
2026-05-05 03:40 50.89470 -101.93520 33934 ft 415 kts 291°
2026-05-05 03:40 50.91263 -102.02230 33945 ft 415 kts 291°
2026-05-05 03:41 50.93032 -102.10873 33953 ft 416 kts 291°
2026-05-05 03:41 50.94807 -102.19598 33964 ft 416 kts 291°
2026-05-05 03:42 50.96581 -102.28338 33956 ft 416 kts 291°
2026-05-05 03:42 50.98351 -102.37084 33942 ft 416 kts 291°
2026-05-05 03:43 51.00106 -102.45842 33950 ft 416 kts 291°
2026-05-05 03:43 51.01852 -102.54590 33953 ft 416 kts 291°
2026-05-05 03:44 51.03599 -102.63326 33962 ft 415 kts 291°
2026-05-05 03:44 51.05343 -102.72088 33966 ft 415 kts 290°
2026-05-05 03:45 51.07073 -102.80847 33972 ft 415 kts 290°
2026-05-05 03:45 51.08794 -102.89604 33950 ft 415 kts 290°
2026-05-05 03:46 51.10506 -102.98375 33971 ft 415 kts 290°
2026-05-05 03:46 51.12221 -103.07160 33980 ft 415 kts 291°
2026-05-05 03:47 51.13929 -103.15943 33980 ft 415 kts 290°
2026-05-05 03:47 51.15628 -103.24746 33989 ft 415 kts 290°
2026-05-05 03:48 51.17318 -103.33543 33990 ft 415 kts 290°
2026-05-05 03:48 51.18987 -103.42296 33974 ft 416 kts 290°
2026-05-05 03:49 51.20669 -103.51128 34003 ft 416 kts 288°
2026-05-05 03:49 51.22346 -103.59973 34010 ft 416 kts 290°
2026-05-05 03:50 51.24007 -103.68800 34019 ft 415 kts 290°
2026-05-05 03:50 51.25661 -103.77629 34019 ft 415 kts 290°
2026-05-05 03:51 51.27309 -103.86453 34027 ft 415 kts 290°
2026-05-05 03:51 51.28954 -103.95296 34025 ft 415 kts 290°
2026-05-05 03:52 51.30592 -104.04132 34022 ft 415 kts 290°
2026-05-05 03:52 51.32218 -104.12973 34024 ft 415 kts 290°
2026-05-05 03:53 51.33845 -104.21812 34030 ft 414 kts 290°
2026-05-05 03:53 51.35448 -104.30575 33743 ft 410 kts 290°
2026-05-05 03:54 51.36237 -104.34930 33248 ft 405 kts 290°
2026-05-05 03:54 51.37014 -104.39230 32764 ft 400 kts 290°
2026-05-05 03:54 51.37780 -104.43486 32292 ft 396 kts 290°
2026-05-05 03:54 51.38537 -104.47708 31821 ft 393 kts 290°
2026-05-05 03:55 51.39286 -104.51894 31359 ft 389 kts 290°
2026-05-05 03:55 51.40029 -104.56029 30923 ft 385 kts 290°
2026-05-05 03:55 51.40766 -104.60129 30479 ft 381 kts 290°
2026-05-05 03:55 51.41497 -104.64202 30024 ft 378 kts 290°
2026-05-05 03:56 51.42215 -104.68220 29553 ft 374 kts 290°
2026-05-05 03:56 51.42922 -104.72194 29139 ft 369 kts 290°
2026-05-05 03:56 51.43619 -104.76115 28739 ft 364 kts 290°
2026-05-05 03:56 51.44307 -104.79994 28337 ft 359 kts 290°
2026-05-05 03:57 51.44984 -104.83827 27942 ft 355 kts 290°
2026-05-05 03:57 51.45651 -104.87613 27549 ft 350 kts 290°
2026-05-05 03:57 51.46308 -104.91346 27157 ft 346 kts 290°
2026-05-05 03:57 51.46961 -104.95047 26772 ft 342 kts 290°
2026-05-05 03:58 51.47602 -104.98692 26392 ft 338 kts 290°
2026-05-05 03:58 51.48235 -105.02312 26001 ft 335 kts 290°
2026-05-05 03:58 51.48859 -105.05888 25579 ft 332 kts 290°
2026-05-05 03:58 51.49476 -105.09423 25208 ft 328 kts 290°
2026-05-05 03:59 51.50088 -105.12934 24806 ft 325 kts 290°
2026-05-05 03:59 51.50693 -105.16423 24410 ft 323 kts 290°
2026-05-05 03:59 51.51293 -105.19888 24007 ft 321 kts 290°
2026-05-05 03:59 51.51888 -105.23336 23596 ft 320 kts 290°
2026-05-05 04:00 51.52481 -105.26771 23158 ft 318 kts 290°
2026-05-05 04:00 51.53064 -105.30166 22759 ft 314 kts 290°
2026-05-05 04:00 51.53643 -105.33538 22359 ft 311 kts 290°
2026-05-05 04:00 51.54216 -105.36873 21974 ft 308 kts 290°
2026-05-05 04:01 51.54942 -105.40068 21619 ft 301 kts 301°
2026-05-05 04:01 51.56035 -105.42881 21228 ft 294 kts 312°
2026-05-05 04:01 51.57433 -105.45231 20841 ft 289 kts 323°
2026-05-05 04:01 51.58970 -105.47300 20466 ft 288 kts 323°
2026-05-05 04:02 51.60499 -105.49372 20090 ft 286 kts 322°
2026-05-05 04:02 51.62016 -105.51435 19718 ft 285 kts 322°
2026-05-05 04:02 51.63528 -105.53494 19345 ft 284 kts 322°
2026-05-05 04:02 51.65036 -105.55550 18971 ft 284 kts 322°
2026-05-05 04:03 51.66539 -105.57598 18617 ft 283 kts 322°
2026-05-05 04:03 51.68041 -105.59640 18235 ft 283 kts 322°
2026-05-05 04:03 51.69540 -105.61682 17847 ft 281 kts 322°
2026-05-05 04:03 51.71030 -105.63715 17452 ft 281 kts 322°
2026-05-05 04:04 51.72519 -105.65748 17075 ft 279 kts 322°
2026-05-05 04:04 51.73996 -105.67767 16720 ft 278 kts 322°
2026-05-05 04:04 51.75448 -105.69761 16368 ft 277 kts 322°
2026-05-05 04:04 51.76912 -105.71767 16024 ft 275 kts 322°
2026-05-05 04:05 51.78364 -105.73761 15700 ft 274 kts 322°
2026-05-05 04:05 51.79812 -105.75754 15358 ft 273 kts 322°
2026-05-05 04:05 51.81256 -105.77739 15023 ft 272 kts 322°
2026-05-05 04:05 51.82693 -105.79718 14681 ft 271 kts 322°
2026-05-05 04:06 51.84127 -105.81691 14342 ft 271 kts 322°
2026-05-05 04:06 51.85561 -105.83662 14000 ft 270 kts 322°
2026-05-05 04:06 51.86991 -105.85629 13638 ft 270 kts 322°
2026-05-05 04:06 51.88415 -105.87596 13289 ft 268 kts 322°
2026-05-05 04:07 51.89827 -105.89554 12942 ft 266 kts 322°
2026-05-05 04:07 51.91227 -105.91493 12599 ft 265 kts 322°
2026-05-05 04:07 51.92623 -105.93425 12248 ft 263 kts 322°
2026-05-05 04:07 51.94008 -105.95345 11914 ft 261 kts 322°
2026-05-05 04:08 51.95256 -105.97423 11578 ft 262 kts 310°
2026-05-05 04:08 51.96166 -106.00030 11220 ft 266 kts 295°
2026-05-05 04:08 51.96623 -106.02957 10861 ft 270 kts 283°
2026-05-05 04:08 51.96898 -106.05910 10498 ft 269 kts 283°
2026-05-05 04:09 51.97183 -106.08922 10124 ft 270 kts 283°
2026-05-05 04:09 51.97468 -106.11924 9710 ft 269 kts 283°
2026-05-05 04:09 51.97754 -106.14920 9322 ft 268 kts 283°
2026-05-05 04:09 51.98041 -106.17897 8922 ft 267 kts 284°
2026-05-05 04:10 51.98324 -106.20850 8534 ft 265 kts 283°
2026-05-05 04:10 51.98601 -106.23804 8133 ft 264 kts 284°
2026-05-05 04:10 51.98877 -106.26732 7742 ft 263 kts 284°
2026-05-05 04:10 51.99155 -106.29653 7345 ft 262 kts 284°
2026-05-05 04:11 51.99431 -106.32574 6924 ft 262 kts 284°
2026-05-05 04:11 51.99703 -106.35493 6486 ft 262 kts 283°
2026-05-05 04:11 51.99972 -106.38401 6124 ft 258 kts 283°
2026-05-05 04:11 52.00235 -106.41251 5690 ft 257 kts 284°
2026-05-05 04:12 52.00502 -106.44111 5338 ft 253 kts 284°
2026-05-05 04:12 52.00750 -106.46852 5288 ft 238 kts 284°
2026-05-05 04:12 52.00982 -106.49439 5207 ft 225 kts 284°
2026-05-05 04:12 52.01205 -106.51889 5110 ft 215 kts 285°
2026-05-05 04:13 52.01418 -106.54225 5008 ft 204 kts 285°
2026-05-05 04:13 52.01624 -106.56460 4932 ft 195 kts 285°
2026-05-05 04:13 52.01813 -106.58558 4870 ft 181 kts 286°
2026-05-05 04:13 52.02126 -106.60419 4760 ft 160 kts 305°
2026-05-05 04:14 52.02746 -106.61740 4660 ft 144 kts 324°
2026-05-05 04:14 52.03588 -106.62588 4393 ft 142 kts 341°
2026-05-05 04:14 52.04521 -106.63102 4182 ft 141 kts 343°
2026-05-05 04:14 52.05438 -106.63607 3992 ft 141 kts 343°
2026-05-05 04:15 52.06363 -106.64119 3783 ft 140 kts 343°
2026-05-05 04:15 52.07276 -106.64629 3610 ft 136 kts 343°
2026-05-05 04:15 52.08158 -106.65121 3403 ft 133 kts 343°
2026-05-05 04:15 52.09027 -106.65605 3218 ft 132 kts 343°
2026-05-05 04:16 52.09896 -106.66091 3023 ft 131 kts 343°
2026-05-05 04:16 52.10757 -106.66570 2842 ft 130 kts 343°
2026-05-05 04:16 52.11611 -106.67046 2659 ft 130 kts 342°
2026-05-05 04:16 52.12480 -106.67532 2442 ft 131 kts 341°
2026-05-05 04:17 52.13345 -106.68010 2297 ft 131 kts 341°
2026-05-05 04:17 52.14210 -106.68481 2125 ft 130 kts 340°
2026-05-05 04:17 52.14785 -106.68799 1994 ft 132 kts 341°
2026-05-05 04:17 52.15642 -106.69288 1802 ft 131 kts 339°
2026-05-05 04:18 52.16496 -106.69785 1656 ft 129 kts 340°
2026-05-05 04:18 52.17195 -106.70176 1662 ft 76 kts 342°
2026-05-05 04:18 52.17412 -106.70291 1651 ft 1 kts 342°
2026-05-05 04:18 52.17430 -106.70301 1650 ft 8 kts 342°
2026-05-05 04:19 52.17561 -106.70376 1647 ft 30 kts 339°
2026-05-05 04:19 52.17796 -106.70546 1650 ft 42 kts 336°
2026-05-05 04:19 52.17878 -106.70502 1652 ft 9 kts 130°
2026-05-05 04:19 52.17774 -106.70525 1650 ft 31 kts 185°
2026-05-05 04:20 52.17680 -106.70497 1649 ft 1 kts 110°
2026-05-05 04:20 52.17639 -106.70426 1648 ft 15 kts 144°
2026-05-05 04:20 52.17533 -106.70369 1648 ft 16 kts 162°
2026-05-05 04:20 52.17390 -106.70293 1651 ft 28 kts 159°
2026-05-05 04:21 52.17320 -106.70091 1652 ft 20 kts 101°
2026-05-05 04:21 52.17294 -106.69873 1650 ft 19 kts 102°
2026-05-05 04:21 52.17274 -106.69693 1650 ft 17 kts 100°
2026-05-05 04:21 52.17251 -106.69510 1648 ft 16 kts 101°
2026-05-05 04:22 52.17230 -106.69336 1648 ft 15 kts 100°
2026-05-05 04:22 52.17214 -106.69186 1648 ft 11 kts 99°
2026-05-05 04:22 52.17191 -106.69096 1648 ft 7 kts 151°
2026-05-05 04:22 52.17150 -106.69117 1648 ft 6 kts 206°
2026-05-05 04:23 52.17117 -106.69136 1648 ft 4 kts 194°
2026-05-05 04:23 52.17098 -106.69141 1649 ft 1 kts 186°
2026-05-05 04:23 52.17091 -106.69140 1649 ft 3 kts 176°
2026-05-05 04:23 52.17070 -106.69121 1649 ft 3 kts 144°
2026-05-05 04:24 52.17069 -106.69119 1649 ft 0 kts 141°